[Date Prev][Date Next][Thread Prev][Thread Next] - [Date Index][Thread Index][Author Index]
2 Line ISS Keps 12-5
- Subject: [sarex] 2 Line ISS Keps 12-5
- From: "Dave Larsen PhD" <doc@xxxxxxxxxxx>
- Date: Fri, 5 Dec 2003 04:03:35 -0800
ISS
1 25544U 98067A 03339.18844191 .00025716 00000-0 25850-3 0 8593
2 25544 51.6303 237.4705 0006099 209.6482 286.8282 15.65262238287736
----
Via the sarex mailing list at AMSAT.ORG courtesy of AMSAT-NA.
To unsubscribe, send "unsubscribe sarex" to Majordomo@amsat.org
AMSAT Home